Location: Corralito
(10.2667°N, 66.9500°W)
Time: 22:18:11
(UTC+00:00)

FALCON 9 R/B - Visible Passes

Search period start: 04 December 2023 00:00
Search period end: 14 December 2023 00:00
Orbit: 188 x 13413 km, 27.0° (Epoch: 04 December)

Date Brightness Start Highest point End Pass type
(mag) Time Alt. Az. Time Alt. Az. Time Alt. Az.
04 Dec 7.4 02:35:54 10° SW 04:30:06 70° E 05:32:39 10° ENE visible
04 Dec 5.9 07:55:44 10° W 09:49:11 54° NNW 10:05:40 10° ENE visible
04 Dec 6.8 23:17:58 10° SSW 23:45:23 31° SE 01:31:52 10° E visible
05 Dec 7.1 03:49:09 10° SW 05:38:23 85° NW 06:45:43 10° ENE visible
05 Dec 5.2 09:58:45 10° WNW 11:04:33 49° N 11:14:38 10° ENE visible
06 Dec 7.0 00:25:45 10° SSW 01:08:40 48° SE 03:06:41 10° ENE visible
06 Dec 6.9 05:05:30 10° WSW 07:13:34 70° NNW 07:56:10 10° ENE visible
07 Dec 7.2 01:33:49 10° SW 02:35:02 66° SE 04:26:12 10° ENE visible
07 Dec 6.4 06:28:54 10° WSW 08:39:37 60° NNW 09:04:45 10° ENE visible
07 Dec 6.5 22:17:40 10° S 22:34:25 21° SE 23:38:11 10° E visible
08 Dec 7.3 02:42:31 10° SW 04:44:43 68° ENE 05:39:21 10° ENE visible
08 Dec 5.8 08:55:30 24° WNW 09:56:39 54° N 10:11:52 10° ENE visible
08 Dec 6.8 23:21:42 10° SSW 23:49:46 36° SE 01:40:22 10° ENE visible
09 Dec 7.1 03:52:40 10° WSW 05:48:23 78° NNW 06:48:57 10° ENE visible
09 Dec 5.1 10:06:01 10° WNW 11:08:08 52° N 11:17:37 10° ENE visible
10 Dec 7.0 00:26:14 10° SSW 01:06:42 54° SE 03:07:29 10° ENE visible
10 Dec 6.9 05:05:57 10° WSW 07:13:56 67° NNW 07:56:14 10° ENE visible
11 Dec 7.2 01:31:01 10° SW 02:27:07 71° SE 04:22:52 10° ENE visible
11 Dec 6.4 06:26:07 10° W 08:36:49 59° NNW 09:01:44 10° ENE visible
11 Dec 6.4 22:12:24 10° S 22:29:26 23° SE 23:33:07 11° E visible
12 Dec 7.3 02:36:21 10° SW 04:43:23 62° NE 05:32:45 10° ENE visible
12 Dec 5.8 08:53:31 26° WNW 09:50:26 56° N 10:05:43 10° ENE visible
12 Dec 6.7 23:13:13 10° SSW 23:39:05 39° SE 00:31:32 28° E visible
13 Dec 7.2 03:42:57 10° WSW 05:43:22 73° N 06:39:24 10° ENE visible
13 Dec 5.1 09:53:24 11° WNW 10:58:34 57° N 11:08:18 10° E visible
